Wallingford, CT

9:01 AM EDT on August 25, 2016 (GMT -0400)
Meriden Markham Municipal

Weather History for KMMK - October, 2012

Change the Weather History Date:

Saturday, October 13, 2012

  Actual Average (KHVN) Record (KHVN)
Temperature  
Mean Temperature 40 °F -  
Max Temperature 53 °F 61 °F 77 °F (1990)
Min Temperature 26 °F 45 °F 28 °F (2012)
Degree Days  
Heating Degree Days 26    
Moisture  
Dew Point 26 °F    
Average Humidity 63    
Maximum Humidity 92    
Minimum Humidity 29    
Precipitation  
Precipitation 0.00 in - - ()
Sea Level Pressure  
Sea Level Pressure 30.44 in    
Wind  
Wind Speed 1 mph (South)    
Max Wind Speed 10 mph    
Max Gust Speed -    
Visibility 10 miles    
Events      
Averages and records for this station are not official NWS values.
T = Trace of Precipitation, MM = Missing Value Source: NWS Daily Summary

Daily Weather History Graph

Daily Weather History Graph

Search for Another Location

Airport or City:

Trip Planner

Search our weather history database for the weather conditions in past years. The results will help you decide how hot, cold, wet, or windy it might be!

Date:

Astronomy

Oct. 13, 2012 Rise Set
Actual Time 7:01 AM EDT 6:12 PM EDT
Civil Twilight 6:33 AM EDT 6:40 PM EDT
Nautical Twilight 6:01 AM EDT 7:12 PM EDT
Astronomical Twilight 5:29 AM EDT 7:44 PM EDT
Moon 4:47 AM EDT (10/13) 4:55 PM EDT (10/13)
Length of Visible Light 12h 06m
Length of Day
11h 11m
Waning Crescent, 5% of the Moon is Illuminated
Oct 13
Waning Crescent
Oct 15
New
Oct 21
First Quarter
Oct 29
Full
Nov 6
Last Quarter

Hourly Weather History & Observations

Time (EDT) Temp. Windchill Dew Point Humidity Pressure Visibility Wind Dir Wind Speed Gust Speed Precip Events Conditions
12:53 AM 30.9 °F - 27.0 °F 85% 30.43 in 10.0 mi Calm Calm - N/A   Clear
1:53 AM 30.9 °F - 28.0 °F 89% 30.45 in 10.0 mi Calm Calm - N/A   Clear
2:53 AM 30.9 °F - 28.0 °F 89% 30.44 in 10.0 mi Calm Calm - N/A   Clear
3:53 AM 28.0 °F - 25.0 °F 88% 30.45 in 10.0 mi Calm Calm - N/A   Clear
4:53 AM 28.0 °F - 25.0 °F 88% 30.47 in 10.0 mi Calm Calm - N/A   Clear
5:53 AM 26.1 °F - 24.1 °F 92% 30.47 in 10.0 mi Calm Calm - N/A   Clear
6:53 AM 26.1 °F - 23.0 °F 88% 30.50 in 10.0 mi Calm Calm - N/A   Clear
7:53 AM 28.9 °F - 27.0 °F 92% 30.51 in 10.0 mi Calm Calm - N/A   Clear
8:53 AM 35.1 °F - 28.9 °F 78% 30.51 in 10.0 mi Calm Calm - N/A   Clear
9:53 AM 43.0 °F - 28.0 °F 56% 30.52 in 10.0 mi Calm Calm - N/A   Clear
10:53 AM 46.9 °F - 23.0 °F 39% 30.51 in 10.0 mi SE 4.6 mph - N/A   Clear
11:53 AM 48.0 °F - 21.0 °F 34% 30.50 in 10.0 mi Calm Calm - N/A   Clear
12:53 PM 50.0 °F - 21.9 °F 33% 30.45 in 10.0 mi Variable 3.5 mph - N/A   Clear
1:53 PM 52.0 °F - 21.0 °F 30% 30.42 in 10.0 mi Variable 3.5 mph - N/A   Clear
2:53 PM 53.1 °F - 21.0 °F 29% 30.40 in 10.0 mi SSW 6.9 mph - N/A   Clear
3:53 PM 51.1 °F - 26.1 °F 38% 30.39 in 10.0 mi South 10.4 mph - N/A   Clear
4:53 PM 50.0 °F - 27.0 °F 41% 30.38 in 10.0 mi South 6.9 mph - N/A   Clear
5:53 PM 48.9 °F - 26.1 °F 41% 30.39 in 10.0 mi South 5.8 mph - N/A   Clear
6:53 PM 44.1 °F - 32.0 °F 63% 30.40 in 10.0 mi Calm Calm - N/A   Clear
8:53 PM 46.0 °F 44.8 °F 33.1 °F 61% 30.38 in 10.0 mi SSE 3.5 mph - N/A   Clear
10:53 PM 46.0 °F - 36.0 °F 68% 30.34 in 10.0 mi Calm Calm - N/A   Clear